[[{"header":{"parameterUnit":"m.s-1","parameterCategory":1,"la1":30.2991,"la2":30.254,"lo1":-89.0895,"lo2":-89.0444,"dx":0.0017,"dy":0.0017,"nx":28,"ny":28,"refTime":"2022-11-03T15:00:00:Z","depth":0,"parameterNumber":2,"parameterNumberName":"U-component_of_WINDS"},"data":[0,0,0,0,0,0,0,0,0,0,0,0,0,0,0,0,0,0,0,0,0,0,0,0,0,0,0,0,0,0,0,0,0,0,0,0,0,0,0,0,0,0,0,0,0,0,0,0,0,0,0,0,0,0,0,0,0,0,-1.5177,-1.5177,0,-1.5188,-1.5188,-1.5188,-1.5179,-1.5179,-1.5179,-1.5178,-1.5192,-1.5193,-1.5194,0,0,0,0,0,0,0,0,0,0,0,0,0,-1.5153,-1.5153,-1.5177,-1.5177,-1.5177,-1.5188,-1.5188,-1.5188,-1.5179,-1.5179,-1.5178,-1.5178,-1.5192,-1.5193,-1.5194,0,0,0,0,0,0,0,0,0,0,0,0,0,-1.5164,-1.5153,-1.5177,-1.5174,-1.5174,-1.5188,-1.5188,-1.5188,-1.5179,-1.5179,-1.5178,-1.5178,-1.5192,-1.5193,-1.5194,-1.5212,0,0,-1.5197,-1.5198,0,0,0,0,0,0,0,0,-1.5163,-1.5164,-1.5174,-1.5174,-1.5174,-1.5181,-1.5185,-1.5196,-1.518,-1.5177,-1.5178,-1.5178,-1.5189,-1.5191,-1.5194,-1.5213,-1.5214,-1.5198,-1.5198,-1.5199,-1.5199,0,0,0,0,0,0,0,-1.5162,-1.5164,-1.5181,-1.5174,-1.5174,-1.5174,-1.5175,-1.5187,-1.5187,-1.5178,-1.5177,-1.5178,-1.5189,-1.5193,-1.5194,-1.5214,-1.5198,-1.5199,-1.5199,-1.52,-1.5251,-1.5252,0,0,0,0,0,0,-1.5161,-1.5163,-1.5181,-1.5181,-1.5167,-1.5175,-1.5176,-1.518,-1.5186,-1.5187,-1.5179,-1.5178,-1.5192,-1.5193,-1.5195,-1.5218,-1.5199,-1.52,-1.52,-1.5251,-1.5251,-1.5252,0,0,0,0,0,0,-1.5161,-1.5163,-1.518,-1.5172,-1.5174,-1.5175,-1.518,-1.518,-1.5184,-1.5187,-1.5188,-1.5182,-1.5191,-1.5193,-1.5208,-1.5218,-1.52,-1.5201,-1.525,-1.5251,-1.5252,-1.5264,0,0,0,0,0,0,-1.516,-1.5163,-1.5168,-1.5172,-1.5175,-1.5192,-1.5181,-1.5181,-1.5185,-1.5184,-1.5191,-1.5191,-1.5191,-1.5207,-1.521,-1.522,-1.5202,-1.5249,-1.525,-1.5252,-1.5262,-1.5265,-1.5267,0,0,0,0,0,-1.5159,-1.5171,-1.5168,-1.5171,-1.5182,-1.5193,-1.5194,-1.5193,-1.5186,-1.5193,-1.5196,-1.5191,-1.5217,-1.5208,-1.5211,-1.5222,-1.5248,-1.525,-1.5251,-1.5261,-1.5265,-1.5267,0,0,0,0,0,0,-1.5168,-1.5171,-1.5168,-1.5182,-1.5187,-1.5191,-1.5199,-1.5196,-1.5203,-1.5202,-1.5201,-1.5203,-1.5219,-1.5222,-1.5212,-1.5242,-1.5232,-1.5234,-1.5238,-1.5242,-1.5244,-1.5243,-1.5203,0,0,0,0,0,-1.5172,-1.5179,-1.5182,-1.5194,-1.5197,-1.5198,-1.5202,-1.5201,-1.5207,-1.5209,-1.5212,-1.5219,-1.5229,-1.5236,-1.5245,-1.5264,-1.5266,-1.5273,-1.5275,-1.5277,-1.5279,-1.5291,-1.5295,-1.5258,-1.5258,-1.5257,0,0,-1.5179,-1.5182,-1.5187,-1.5196,-1.5199,-1.5209,-1.5199,-1.5209,-1.5217,-1.5211,-1.5225,-1.5229,-1.5236,-1.5254,-1.5262,-1.5257,-1.529,-1.5279,-1.5281,-1.5281,-1.5293,-1.5297,-1.53,-1.5259,-1.5258,-1.5258,0,0,-1.5197,-1.5199,-1.521,-1.5215,-1.5221,-1.5222,-1.5224,-1.523,-1.5231,-1.5246,-1.5242,-1.5253,-1.5269,-1.5275,-1.5281,-1.5305,-1.5302,-1.5308,-1.5321,-1.5333,-1.5336,-1.5338,-1.5348,-1.5352,-1.531,-1.531,-1.531,0,-1.5206,-1.5218,-1.5216,-1.5227,-1.5232,-1.5227,-1.524,-1.5244,-1.5253,-1.5258,-1.5253,-1.5275,-1.528,-1.53,-1.5306,-1.531,-1.5315,-1.5307,-1.5335,-1.5338,-1.534,-1.535,-1.5353,-1.5311,-1.5311,-1.5311,-1.5311,0,-1.5229,-1.5238,-1.5247,-1.5255,-1.5262,-1.5273,-1.5275,-1.5282,-1.5281,-1.5283,-1.53,-1.5306,-1.5317,-1.5322,-1.5321,-1.5343,-1.534,-1.5335,-1.5325,-1.5345,-1.5354,-1.5357,-1.5312,-1.5312,-1.5312,-1.5311,0,0,-1.5251,-1.526,-1.5263,-1.5268,-1.5276,-1.5284,-1.5297,-1.5307,-1.5314,-1.5322,-1.5333,-1.5349,-1.5345,-1.5351,-1.5352,-1.5362,-1.5383,-1.5357,-1.5357,-1.5362,-1.541,-1.5413,-1.5417,-1.5382,-1.5382,-1.5383,-1.541,0,-1.527,-1.529,-1.5291,-1.531,-1.532,-1.5317,-1.5328,-1.5336,-1.5339,-1.5349,-1.5354,-1.5365,-1.5359,-1.5363,-1.5373,-1.5378,-1.5393,-1.5377,-1.5394,-1.5395,-1.5392,-1.5422,-1.5425,-1.545,-1.5413,-1.5413,-1.5414,0,-1.5294,-1.5303,-1.5323,-1.5331,-1.5335,-1.5345,-1.5356,-1.5366,-1.5375,-1.5377,-1.5385,-1.5385,-1.54,-1.5391,-1.5413,-1.5402,-1.541,-1.5414,-1.5415,-1.5416,-1.5405,-1.5425,-1.5457,-1.5461,-1.5419,-1.5419,-1.5418,0,-1.531,-1.5326,-1.5341,-1.5345,-1.5355,-1.5362,-1.5367,-1.5376,-1.5383,-1.5394,-1.5399,-1.5411,-1.5418,-1.5429,-1.5433,-1.5426,-1.5456,-1.5446,-1.546,-1.546,-1.5465,-1.5465,-1.55,-1.547,-1.547,-1.547,-1.547,0,-1.5331,-1.5344,-1.5348,-1.5357,-1.5372,-1.5373,-1.5389,-1.5394,-1.5402,-1.5414,-1.5413,-1.5424,-1.5428,-1.5441,-1.5445,-1.5464,-1.5467,-1.547,-1.5471,-1.547,-1.547,-1.5475,-1.5473,-1.5471,-1.5471,-1.5471,-1.5471,0,-1.535,-1.5353,-1.5369,-1.5378,-1.538,-1.5391,-1.54,-1.541,-1.5414,-1.5429,-1.5432,-1.5439,-1.5455,-1.546,-1.5478,-1.5481,-1.5504,-1.5503,-1.55,-1.55,-1.5513,-1.5512,-1.5553,-1.5559,-1.5525,-1.5525,-1.5526,0,-1.5363,-1.5373,-1.5383,-1.539,-1.5395,-1.5407,-1.5415,-1.5418,-1.5426,-1.5439,-1.5448,-1.5463,-1.5475,-1.55,-1.5508,-1.5523,-1.5523,-1.5536,-1.5525,-1.5525,-1.5524,-1.5523,-1.5525,-1.5538,-1.5538,-1.5539,-1.5539,0,-1.5387,-1.5388,-1.5399,-1.541,-1.542,-1.5429,-1.5438,-1.5445,-1.545,-1.546,-1.5475,-1.5484,-1.5504,-1.552,-1.5536,-1.5543,-1.5543,-1.5543,-1.5547,-1.5546,-1.5544,-1.5546,-1.5506,-1.5541,-1.5541,-1.5541,-1.5541,-1.5541,-1.5404,-1.5413,-1.5422,-1.5435,-1.5442,-1.5451,-1.5462,-1.5468,-1.548,-1.5495,-1.5497,-1.5514,-1.5526,-1.5547,-1.5556,-1.557,-1.5567,-1.5572,-1.5574,-1.5575,-1.5577,-1.5542,-1.5573,-1.5573,-1.5573,-1.5573,-1.5573,0,-1.5428,-1.5434,-1.5446,-1.5459,-1.5469,-1.5468,-1.5479,-1.5488,-1.5503,-1.5513,-1.5526,-1.5545,-1.5561,-1.5571,-1.5587,-1.5598,-1.5598,-1.5602,-1.5601,-1.5603,-1.5578,-1.5573,-1.5601,-1.5601,-1.5601,-1.5601,-1.5601,-1.5601,-1.5442,-1.5458,-1.5461,-1.5483,-1.5489,-1.5505,-1.5512,-1.5521,-1.553,-1.5551,-1.5564,-1.557,-1.5582,-1.5599,-1.5615,-1.5618,-1.5624,-1.5629,-1.5631,-1.5608,-1.5605,-1.5602,-1.5597,-1.563,-1.563,-1.5655,-1.5655,-1.5656]},{"header":{"parameterUnit":"m.s-1","parameterCategory":1,"la1":30.2991,"la2":30.254,"lo1":-89.0895,"lo2":-89.0444,"dx":0.0017,"dy":0.0017,"nx":28,"ny":28,"refTime":"2022-11-03T15:00:00:Z","depth":0,"parameterNumber":3,"parameterNumberName":"V-component_of_WINDS"},"data":[0,0,0,0,0,0,0,0,0,0,0,0,0,0,0,0,0,0,0,0,0,0,0,0,0,0,0,0,0,0,0,0,0,0,0,0,0,0,0,0,0,0,0,0,0,0,0,0,0,0,0,0,0,0,0,0,0,0,4.3855,4.3854,0,4.3764,4.3763,4.3762,4.3676,4.3675,4.3674,4.3673,4.3569,4.3568,4.3566,0,0,0,0,0,0,0,0,0,0,0,0,0,4.3948,4.3947,4.3855,4.3854,4.3853,4.3764,4.3763,4.3762,4.3676,4.3675,4.3673,4.3672,4.357,4.3568,4.3566,0,0,0,0,0,0,0,0,0,0,0,0,0,4.3887,4.3946,4.3856,4.38,4.3794,4.3764,4.3763,4.3761,4.3676,4.3675,4.3673,4.3672,4.3571,4.3568,4.3566,4.358,0,0,4.3557,4.3556,0,0,0,0,0,0,0,0,4.3891,4.3884,4.3809,4.3804,4.3797,4.373,4.3757,4.37,4.3677,4.3721,4.3673,4.3671,4.3623,4.3616,4.3602,4.3576,4.3571,4.3557,4.3556,4.3554,4.3554,0,0,0,0,0,0,0,4.3895,4.3887,4.3819,4.3808,4.3801,4.3777,4.3767,4.3746,4.3682,4.3717,4.371,4.3701,4.362,4.3605,4.3599,4.357,4.3557,4.3555,4.3553,4.3552,4.3551,4.3552,0,0,0,0,0,0,4.3909,4.3891,4.3822,4.3816,4.3841,4.3777,4.3765,4.3753,4.3682,4.367,4.3703,4.3698,4.361,4.3602,4.3595,4.3609,4.3554,4.3552,4.355,4.3549,4.3551,4.3553,0,0,0,0,0,0,4.3911,4.3904,4.3825,4.3852,4.384,4.3777,4.3764,4.3752,4.3737,4.3671,4.3658,4.37,4.3609,4.3599,4.3586,4.3604,4.3551,4.3548,4.3547,4.355,4.3552,4.3636,0,0,0,0,0,0,4.3914,4.3905,4.3912,4.3853,4.3839,4.382,4.3765,4.3751,4.3734,4.3727,4.3665,4.3654,4.3607,4.359,4.3583,4.3599,4.3546,4.3545,4.3548,4.3551,4.3631,4.364,4.3649,0,0,0,0,0,4.3918,4.3937,4.3913,4.3905,4.3847,4.3821,4.3813,4.3762,4.3736,4.3741,4.3699,4.3656,4.3603,4.3589,4.3581,4.3596,4.3544,4.3547,4.3551,4.3627,4.3639,4.3649,0,0,0,0,0,0,4.3996,4.3928,4.39,4.3902,4.3869,4.3807,4.3812,4.3776,4.3747,4.3741,4.3675,4.3662,4.3656,4.3624,4.361,4.3607,4.3567,4.3569,4.3628,4.3639,4.3648,4.3655,4.3544,0,0,0,0,0,4.4014,4.4002,4.3942,4.3948,4.3934,4.3876,4.3863,4.3827,4.3788,4.3773,4.3729,4.3691,4.3666,4.365,4.3623,4.3626,4.3611,4.3632,4.3641,4.3649,4.3651,4.365,4.3659,4.3564,4.3564,4.3564,0,0,4.405,4.4011,4.4007,4.3963,4.3933,4.392,4.3865,4.3852,4.3841,4.3769,4.3756,4.3722,4.3675,4.367,4.3666,4.3644,4.3674,4.3653,4.366,4.3658,4.3655,4.3664,4.3672,4.3567,4.3566,4.3566,0,0,4.4109,4.4079,4.4082,4.4053,4.401,4.3972,4.3973,4.3917,4.3894,4.3879,4.3826,4.3809,4.3768,4.3737,4.3715,4.3764,4.3723,4.3757,4.3803,4.3803,4.381,4.3817,4.3834,4.3841,4.3759,4.3759,4.3759,0,4.4158,4.4139,4.4086,4.4079,4.406,4.3999,4.4,4.3974,4.3923,4.3911,4.3888,4.3835,4.3799,4.3786,4.3798,4.3783,4.378,4.3763,4.3814,4.382,4.3825,4.3841,4.3847,4.3764,4.3763,4.3763,4.3762,0,4.4201,4.4188,4.4195,4.4152,4.4134,4.413,4.4076,4.4064,4.4029,4.3993,4.3978,4.3933,4.3897,4.3891,4.3855,4.3873,4.3861,4.3827,4.3785,4.3839,4.3853,4.3859,4.377,4.3769,4.3767,4.3766,0,0,4.4306,4.4236,4.4239,4.4219,4.4167,4.4154,4.4147,4.4115,4.4106,4.4072,4.4064,4.4031,4.4,4.3976,4.3936,4.3936,4.3978,4.3902,4.39,4.3918,4.3994,4.402,4.4028,4.395,4.3951,4.3952,4.3998,0,4.4356,4.4344,4.4298,4.4298,4.4285,4.4226,4.422,4.4186,4.4152,4.4134,4.4094,4.4073,4.4033,4.4019,4.4016,4.3974,4.3992,4.3969,4.394,4.3939,4.3954,4.4035,4.4063,4.4108,4.4003,4.4004,4.4005,0,4.4413,4.4388,4.4388,4.4338,4.433,4.4326,4.4293,4.4277,4.4237,4.4212,4.4187,4.4143,4.413,4.4093,4.4073,4.4059,4.4043,4.4021,4.4021,4.4016,4.3976,4.4033,4.4122,4.4129,4.4012,4.4012,4.4011,0,4.4491,4.4456,4.4452,4.4436,4.4377,4.4375,4.435,4.4308,4.4292,4.4262,4.4251,4.4218,4.42,4.4175,4.4123,4.4101,4.4109,4.4067,4.4087,4.4088,4.4091,4.4091,4.4179,4.4081,4.4081,4.4081,4.4081,0,4.4552,4.4554,4.4486,4.4483,4.4484,4.4429,4.443,4.4399,4.4363,4.4351,4.4297,4.4287,4.422,4.4201,4.416,4.415,4.4141,4.4119,4.4108,4.4125,4.4128,4.4114,4.4109,4.4083,4.4082,4.4082,4.4082,0,4.4638,4.4593,4.4585,4.453,4.4517,4.452,4.4471,4.4466,4.4429,4.4415,4.4408,4.435,4.4325,4.4272,4.4231,4.4203,4.4203,4.4183,4.4218,4.4211,4.4234,4.4233,4.4316,4.4324,4.4222,4.4223,4.4223,0,4.4681,4.4682,4.4629,4.4619,4.4597,4.4581,4.4565,4.4511,4.4496,4.4451,4.445,4.4422,4.4397,4.436,4.4312,4.428,4.4259,4.4291,4.4254,4.427,4.426,4.4261,4.426,4.4299,4.43,4.4301,4.4302,0,4.4761,4.4739,4.472,4.4693,4.4677,4.4652,4.4624,4.4618,4.4557,4.4542,4.4519,4.4499,4.446,4.4432,4.4394,4.4364,4.4323,4.4314,4.4317,4.4334,4.4354,4.4344,4.4241,4.4312,4.4311,4.4311,4.431,4.431,4.4827,4.4825,4.4788,4.4769,4.4743,4.4719,4.4711,4.4675,4.4655,4.4621,4.4589,4.4568,4.4527,4.4472,4.4446,4.4427,4.4406,4.441,4.4411,4.4413,4.442,4.4358,4.4419,4.4419,4.4418,4.4418,4.4418,0,4.4905,4.4878,4.4861,4.4826,4.481,4.4776,4.4743,4.4732,4.4715,4.4682,4.4659,4.4632,4.4605,4.4555,4.4523,4.4518,4.4498,4.4511,4.4511,4.4505,4.444,4.4441,4.4528,4.4528,4.4528,4.4528,4.4528,4.4528,4.4943,4.494,4.4913,4.4895,4.4868,4.485,4.4834,4.4811,4.4784,4.4757,4.4736,4.4705,4.4665,4.463,4.4603,4.4589,4.4579,4.4599,4.4579,4.4519,4.4509,4.4499,4.45,4.4598,4.4598,4.4645,4.4645,4.4646]}]]